{"data":{"norad_id":68866,"intl_designator":"2026-095C","name":"KUIPER-00357","alt_names":[],"object_type":"PAYLOAD","status":"ACTIVE","operator":null,"country":"US","launch_date":"2026-04-28","launch_site_code":"AFETR","launch_vehicle":null,"mission":null,"orbit_class":"UNKNOWN","rcs_meters":null,"size_class":null,"mass_kg":null,"dimensions":null,"purposes":[],"wikipedia_slug":null,"has_3d_model":false,"image_url":null,"decayed_at":null,"tle_current":{"epoch":"2026-09-20T03:42:03.381984Z","epoch_age_seconds":45432,"freshness":"FRESH","line1":"1 68866U 26095C   26263.15420581  .00002256  00000+0  32484-3 0  9999","line2":"2 68866  51.9014 183.2242 0001162  67.5101 292.5984 14.79933732 21783","mean_motion":14.79933732,"eccentricity":0.0001162,"inclination_deg":51.9014,"raan_deg":183.2242,"arg_perigee_deg":67.5101,"mean_anomaly_deg":292.5984,"bstar":0.00032484,"rev_number":2178,"period_min":97.301654044602,"perigee_km":628.71902714234,"apogee_km":630.34760972434,"semimajor_km":7007.6703184333,"source":"CELESTRAK","updated_at":"2026-09-20T09:00:24.507244Z"}}}